Flag for U.S.A. Weather past 2 weeks in Columbus, Georgia, U.S.A.

Now
80 °F

Clear.


Feels Like: 84 °F
Forecast: 74 / 96 °F
Wind: No wind

Location: Columbus Metropolitan Airport

Current Time: Aug 21, 2014 at 10:44:53 PM

Latest Report: Aug 21, 2014 at 9:51 PM


Visibility: 10 mi

Pressure: 30.09 "Hg

Humidity: 74%

Dew point: 71 °F

Location of ColumbusLocation

Historic Weather in Columbus — Graph

°F

Columbus temperature yesterday

Maximum temperature yesterday: 93 °F (at 4:51 PM)
Minimum temperature yesterday: 70 °F (at 4:51 AM)
Average temperature yesterday: 79 °F

Past Weeks' High & Low Weather Summary

 TemperatureHumidityPressure
High96 °F (Aug 7, 5:51 PM)100% (Aug 12, 6:01 AM)30.13 "Hg (Aug 12, 6:01 AM)
Low65 °F (Aug 14, 6:51 AM)34% (Aug 14, 5:51 PM)29.84 "Hg (Aug 12, 4:51 PM)
Average79 °F73%29.98 "Hg
* Reported Aug 6 9:51 PM — Aug 21 9:51 PM, Columbus, Weather by CustomWeather, © 2014

Note: Actual official high and low records may vary slightly from our data, if they occured in-between our weather recording intervals... More about our weather records

Advertising

Columbus weather history for previous 24 hours

 ConditionsComfort  
Time TempWeatherWind HumidityBarometerVisibility
9:51 PM
Aug 21
80 °FClear.No wind74%30.09 "Hg10 mi
8:51 PM82 °FSunny.No wind70%30.06 "Hg10 mi
7:51 PM83 °FSunny.3 mph65%30.06 "Hg10 mi
6:51 PM83 °FSunny.3 mph63%30.07 "Hg10 mi
5:51 PM84 °FSunny.7 mph65%30.07 "Hg10 mi
4:51 PM87 °FThundershowers. Passing clouds.6 mph55%30.06 "Hg10 mi
4:04 PM91 °FThundershowers. Sunny.10 mph49%30.08 "Hg10 mi
3:51 PM91 °FScattered clouds.7 mph49%30.06 "Hg10 mi
2:51 PM93 °FScattered clouds.6 mph50%30.08 "Hg10 mi
1:51 PM91 °FPartly sunny.5 mph54%30.10 "Hg10 mi
12:51 PM92 °FPassing clouds.5 mph54%30.11 "Hg10 mi
11:51 AM89 °FSunny.7 mph59%30.12 "Hg10 mi
10:51 AM84 °FSunny.No wind70%30.12 "Hg10 mi
9:51 AM80 °FSunny.6 mph76%30.13 "Hg10 mi
8:51 AM78 °FSunny.No wind79%30.13 "Hg10 mi
7:51 AM74 °FClear.No wind91%30.10 "Hg10 mi
6:51 AM73 °FClear.No wind90%30.09 "Hg10 mi
5:51 AM73 °FClear.No wind90%30.07 "Hg10 mi
4:51 AM74 °FClear.No wind91%30.06 "Hg10 mi
3:51 AM74 °FClear.3 mph91%30.06 "Hg10 mi
2:51 AM75 °FClear.No wind88%30.06 "Hg10 mi
1:51 AM74 °FClear.No wind91%30.08 "Hg10 mi
12:51 AM76 °FPassing clouds.No wind85%30.12 "Hg10 mi
11:51 PM
Aug 20
75 °FClear.No wind88%30.10 "Hg10 mi
10:51 PM76 °FClear.No wind85%30.09 "Hg10 mi
Weather by CustomWeather, © 2014

See weather overviewHow to use our weather pages